LOT7 KJFK-EPWA

Flight info

Callsign LOT7
Flight time 7h 30m
Altitude 37000
Route GREKI DCT JUDDS DCT MARTN DCT CBIRD DCT TAFFY N741B LOMSI/M085F390 NATU SOVED/N0492F390 DCT LUTOV DCT REMSI DCT BELOX L603 LAMSO DCT AMSAN/N0494F410 DCT ROBEG DCT HLZ DCT SUBIX L980 BAREP DCT DIPKI P150 BIMPA
Aircraft B789/H-SDE1E2E3FGHIJ2J3J4J5M1RWXY/LB1D1

Departure

Time 2026-05-07 02:54
Airport John F. Kennedy International Airport (KJFK)

Arrival

Time 2026-05-07 10:25
Airport Warsaw Chopin Airport (EPWA)
Time Latitude Longitude Altitude Speed Heading
2026-05-07 02:26 40.65072 -73.78390 27 ft 0 kts 121°
2026-05-07 02:42 40.65078 -73.78404 27 ft 3 kts 112°
2026-05-07 02:42 40.65082 -73.78427 27 ft 3 kts 91°
2026-05-07 02:42 40.65080 -73.78450 27 ft 3 kts 66°
2026-05-07 02:42 40.65071 -73.78469 27 ft 3 kts 44°
2026-05-07 02:43 40.65056 -73.78484 27 ft 3 kts 23°
2026-05-07 02:43 40.65040 -73.78490 27 ft 1 kts
2026-05-07 02:45 40.65042 -73.78490 27 ft 1 kts
2026-05-07 02:46 40.65060 -73.78486 27 ft 4 kts
2026-05-07 02:46 40.65094 -73.78478 27 ft 6 kts 16°
2026-05-07 02:46 40.65136 -73.78459 27 ft 6 kts 22°
2026-05-07 02:46 40.65169 -73.78441 27 ft 5 kts 22°
2026-05-07 02:47 40.65207 -73.78420 27 ft 7 kts 24°
2026-05-07 02:47 40.65250 -73.78383 27 ft 8 kts 54°
2026-05-07 02:47 40.65239 -73.78319 27 ft 8 kts 118°
2026-05-07 02:47 40.65208 -73.78252 27 ft 9 kts 121°
2026-05-07 02:48 40.65173 -73.78174 27 ft 11 kts 121°
2026-05-07 02:48 40.65133 -73.78086 27 ft 12 kts 121°
2026-05-07 02:48 40.65112 -73.78025 27 ft 6 kts 78°
2026-05-07 02:48 40.65131 -73.77998 27 ft 7 kts 35°
2026-05-07 02:49 40.65177 -73.77960 27 ft 9 kts 32°
2026-05-07 02:49 40.65257 -73.77897 27 ft 11 kts 31°
2026-05-07 02:49 40.65317 -73.77851 27 ft 7 kts 30°
2026-05-07 02:49 40.65344 -73.77822 27 ft 7 kts 62°
2026-05-07 02:50 40.65320 -73.77734 27 ft 9 kts 121°
2026-05-07 02:50 40.65298 -73.77686 27 ft 10 kts 121°
2026-05-07 02:50 40.65261 -73.77604 27 ft 11 kts 120°
2026-05-07 02:50 40.65218 -73.77510 27 ft 12 kts 122°
2026-05-07 02:51 40.65173 -73.77410 27 ft 13 kts 120°
2026-05-07 02:51 40.65123 -73.77300 27 ft 14 kts 122°
2026-05-07 02:51 40.65071 -73.77187 27 ft 15 kts 120°
2026-05-07 02:51 40.65018 -73.77069 27 ft 15 kts 120°
2026-05-07 02:52 40.64963 -73.76947 27 ft 16 kts 120°
2026-05-07 02:52 40.64932 -73.76878 27 ft 4 kts 120°
2026-05-07 02:52 40.64916 -73.76843 27 ft 5 kts 121°
2026-05-07 02:52 40.64893 -73.76794 27 ft 7 kts 122°
2026-05-07 02:53 40.64865 -73.76733 27 ft 9 kts 121°
2026-05-07 02:53 40.64833 -73.76661 27 ft 10 kts 120°
2026-05-07 02:53 40.64792 -73.76587 27 ft 10 kts 154°
2026-05-07 02:53 40.64725 -73.76600 27 ft 10 kts 207°
2026-05-07 02:54 40.64588 -73.76704 27 ft 53 kts 211°
2026-05-07 02:54 40.64026 -73.77144 27 ft 131 kts 210°
2026-05-07 02:54 40.63060 -73.77895 123 ft 180 kts 211°
2026-05-07 02:54 40.61995 -73.78725 1007 ft 175 kts 210°
2026-05-07 02:55 40.60954 -73.79535 1952 ft 172 kts 211°
2026-05-07 02:55 40.59957 -73.80291 2918 ft 162 kts 215°
2026-05-07 02:55 40.58970 -73.81061 3527 ft 170 kts 216°
2026-05-07 02:55 40.57896 -73.81858 3940 ft 187 kts 211°
2026-05-07 02:56 40.56507 -73.82044 4144 ft 220 kts 180°
2026-05-07 02:56 40.55008 -73.81166 4381 ft 255 kts 150°
2026-05-07 02:56 40.53835 -73.79277 4755 ft 282 kts 121°
2026-05-07 02:56 40.53341 -73.76719 5323 ft 297 kts 95°
2026-05-07 02:57 40.53414 -73.73988 6026 ft 302 kts 87°
2026-05-07 02:57 40.53557 -73.71203 6658 ft 309 kts 87°
2026-05-07 02:57 40.53715 -73.68350 7302 ft 316 kts 87°
2026-05-07 02:57 40.53907 -73.65439 7943 ft 323 kts 83°
2026-05-07 02:58 40.54705 -73.62662 8523 ft 328 kts 54°
2026-05-07 02:58 40.56314 -73.60602 9213 ft 321 kts 26°
2026-05-07 02:58 40.58356 -73.59670 9911 ft 305 kts
2026-05-07 02:58 40.60468 -73.59426 10538 ft 309 kts 355°
2026-05-07 02:59 40.62672 -73.59251 10860 ft 325 kts 355°
2026-05-07 02:59 40.65002 -73.58912 11161 ft 348 kts
2026-05-07 02:59 40.67454 -73.58312 11478 ft 368 kts
2026-05-07 02:59 40.70020 -73.57593 11814 ft 386 kts
2026-05-07 03:00 40.72679 -73.56775 12299 ft 399 kts
2026-05-07 03:00 40.75409 -73.55890 12888 ft 408 kts
2026-05-07 03:00 40.78196 -73.54966 13516 ft 415 kts
2026-05-07 03:00 40.81015 -73.54022 14185 ft 421 kts
2026-05-07 03:01 40.83865 -73.53066 14907 ft 424 kts
2026-05-07 03:01 40.86734 -73.52103 15652 ft 426 kts
2026-05-07 03:01 40.89623 -73.51133 16375 ft 429 kts
2026-05-07 03:01 40.92528 -73.50157 17054 ft 432 kts
2026-05-07 03:02 40.95415 -73.49193 17678 ft 436 kts
2026-05-07 03:02 40.98369 -73.48212 18304 ft 440 kts
2026-05-07 03:02 41.01362 -73.47215 18944 ft 444 kts
2026-05-07 03:02 41.04364 -73.46205 19602 ft 446 kts
2026-05-07 03:03 41.07383 -73.45184 20286 ft 448 kts
2026-05-07 03:03 41.10403 -73.44165 20977 ft 449 kts
2026-05-07 03:03 41.13431 -73.43144 21613 ft 451 kts
2026-05-07 03:03 41.16505 -73.42112 22100 ft 456 kts
2026-05-07 03:04 41.19598 -73.41073 22579 ft 461 kts
2026-05-07 03:04 41.22721 -73.40019 23086 ft 465 kts
2026-05-07 03:04 41.25843 -73.38962 23612 ft 468 kts
2026-05-07 03:04 41.29052 -73.37874 24154 ft 471 kts
2026-05-07 03:05 41.32240 -73.36789 24628 ft 476 kts
2026-05-07 03:05 41.35400 -73.35448 25063 ft 488 kts
2026-05-07 03:05 41.38601 -73.33837 25463 ft 497 kts 11°
2026-05-07 03:05 41.41821 -73.32066 25859 ft 504 kts 13°
2026-05-07 03:06 41.45049 -73.30181 26276 ft 510 kts 14°
2026-05-07 03:06 41.48293 -73.28222 26711 ft 514 kts 15°
2026-05-07 03:06 41.51558 -73.26222 27135 ft 517 kts 15°
2026-05-07 03:06 41.54838 -73.24203 27551 ft 521 kts 15°
2026-05-07 03:07 41.58140 -73.22179 27996 ft 522 kts 14°
2026-05-07 03:07 41.61452 -73.20158 28389 ft 526 kts 14°
2026-05-07 03:07 41.64800 -73.18114 28757 ft 529 kts 14°
2026-05-07 03:07 41.68152 -73.16062 29114 ft 532 kts 14°
2026-05-07 03:08 41.71524 -73.13989 29499 ft 535 kts 14°
2026-05-07 03:08 41.74916 -73.11899 29871 ft 537 kts 14°
2026-05-07 03:08 41.78318 -73.09799 30232 ft 540 kts 14°
2026-05-07 03:08 41.81737 -73.07686 30579 ft 542 kts 14°
2026-05-07 03:09 41.85181 -73.05556 30927 ft 545 kts 14°
2026-05-07 03:09 41.88627 -73.03420 31335 ft 546 kts 13°
2026-05-07 03:09 41.92074 -73.01279 31811 ft 545 kts 13°
2026-05-07 03:09 41.95515 -72.99138 32298 ft 544 kts 13°
2026-05-07 03:10 41.98950 -72.97000 32785 ft 543 kts 13°
2026-05-07 03:10 42.02370 -72.94869 33265 ft 542 kts 13°
2026-05-07 03:10 42.05748 -72.92766 33727 ft 540 kts 13°
2026-05-07 03:10 42.09158 -72.90639 34181 ft 539 kts 13°
2026-05-07 03:11 42.12552 -72.88526 34643 ft 537 kts 13°
2026-05-07 03:11 42.15941 -72.86410 35065 ft 536 kts 13°
2026-05-07 03:11 42.19317 -72.84297 35464 ft 535 kts 13°
2026-05-07 03:11 42.22689 -72.82182 35844 ft 534 kts 13°
2026-05-07 03:12 42.26055 -72.80069 36211 ft 533 kts 13°
2026-05-07 03:12 42.29418 -72.77957 36542 ft 533 kts 13°
2026-05-07 03:12 42.32791 -72.75838 36716 ft 535 kts 13°
2026-05-07 03:12 42.36181 -72.73710 36780 ft 539 kts 13°
2026-05-07 03:13 42.42987 -72.69419 36791 ft 538 kts 14°
2026-05-07 03:13 42.49734 -72.65149 36799 ft 537 kts 14°
2026-05-07 03:14 42.56517 -72.60851 36804 ft 538 kts 14°
2026-05-07 03:15 42.66708 -72.54374 36812 ft 540 kts 15°
2026-05-07 03:15 42.73508 -72.50035 36810 ft 540 kts 15°
2026-05-07 03:16 42.80311 -72.45685 36812 ft 540 kts 15°
2026-05-07 03:16 42.87106 -72.41331 36816 ft 540 kts 16°
2026-05-07 03:17 42.93917 -72.36957 36807 ft 540 kts 16°
2026-05-07 03:17 43.00672 -72.32608 36819 ft 540 kts 16°
2026-05-07 03:18 43.07482 -72.28213 36820 ft 541 kts 16°
2026-05-07 03:18 43.14287 -72.23806 36833 ft 541 kts 16°
2026-05-07 03:19 43.21089 -72.19391 36845 ft 541 kts 16°
2026-05-07 03:19 43.27911 -72.14956 36837 ft 541 kts 16°
2026-05-07 03:20 43.34719 -72.10527 36843 ft 541 kts 16°
2026-05-07 03:20 43.41498 -72.06102 36841 ft 541 kts 17°
2026-05-07 03:21 43.48298 -72.01649 36827 ft 541 kts 18°
2026-05-07 03:21 43.55100 -71.97176 36813 ft 540 kts 18°
2026-05-07 03:22 43.61891 -71.92701 36802 ft 541 kts 18°
2026-05-07 03:22 43.68696 -71.88210 36788 ft 541 kts 19°
2026-05-07 03:23 43.75443 -71.83743 36784 ft 541 kts 19°
2026-05-07 03:23 43.82236 -71.79237 36794 ft 541 kts 19°
2026-05-07 03:24 43.89041 -71.74711 36782 ft 541 kts 19°
2026-05-07 03:24 43.95839 -71.70177 36789 ft 542 kts 19°
2026-05-07 03:25 44.02636 -71.65632 36804 ft 541 kts 19°
2026-05-07 03:25 44.09429 -71.61081 36812 ft 542 kts 19°
2026-05-07 03:26 44.16224 -71.56516 36809 ft 542 kts 19°
2026-05-07 03:26 44.22967 -71.51973 36821 ft 542 kts 19°
2026-05-07 03:27 44.29765 -71.47384 36818 ft 543 kts 19°
2026-05-07 03:27 44.36567 -71.42778 36811 ft 543 kts 19°
2026-05-07 03:28 44.43358 -71.38169 36824 ft 542 kts 20°
2026-05-07 03:28 44.50132 -71.33560 36814 ft 540 kts 20°
2026-05-07 03:29 44.56875 -71.28959 36815 ft 538 kts 21°
2026-05-07 03:29 44.63610 -71.24348 36824 ft 538 kts 21°
2026-05-07 03:30 44.70344 -71.19727 36811 ft 538 kts 21°
2026-05-07 03:30 44.77075 -71.15096 36820 ft 538 kts 21°
2026-05-07 03:31 44.83760 -71.10277 36792 ft 544 kts 29°
2026-05-07 03:31 44.89532 -71.03296 36836 ft 550 kts 43°
2026-05-07 03:32 44.94809 -70.95574 36812 ft 550 kts 44°
2026-05-07 03:32 45.00151 -70.87830 36801 ft 550 kts 43°
2026-05-07 03:33 45.05564 -70.80157 36769 ft 551 kts 43°
2026-05-07 03:33 45.10071 -70.73785 36751 ft 551 kts 43°
2026-05-07 03:34 45.16399 -70.64806 36737 ft 550 kts 43°
2026-05-07 03:34 45.20890 -70.58408 36745 ft 550 kts 43°
2026-05-07 03:35 45.26289 -70.50695 36746 ft 551 kts 43°
2026-05-07 03:35 45.31683 -70.42969 36742 ft 551 kts 43°
2026-05-07 03:36 45.37082 -70.35212 36759 ft 551 kts 43°
2026-05-07 03:36 45.42471 -70.27447 36771 ft 552 kts 43°
2026-05-07 03:37 45.47857 -70.19661 36762 ft 551 kts 44°
2026-05-07 03:37 45.53233 -70.11861 36749 ft 551 kts 44°
2026-05-07 03:38 45.58603 -70.04052 36758 ft 550 kts 44°
2026-05-07 03:38 45.63964 -69.96238 36749 ft 550 kts 44°
2026-05-07 03:39 45.69319 -69.88410 36739 ft 550 kts 44°
2026-05-07 03:39 45.74667 -69.80571 36749 ft 550 kts 44°
2026-05-07 03:40 45.79977 -69.72768 36766 ft 551 kts 44°
2026-05-07 03:40 45.85331 -69.64880 36752 ft 552 kts 44°
2026-05-07 03:41 45.90674 -69.56979 36736 ft 551 kts 45°
2026-05-07 03:41 45.96009 -69.49060 36743 ft 551 kts 45°
2026-05-07 03:42 46.01347 -69.41116 36753 ft 552 kts 45°
2026-05-07 03:42 46.06673 -69.33167 36745 ft 552 kts 45°
2026-05-07 03:43 46.12005 -69.25188 36758 ft 552 kts 45°
2026-05-07 03:43 46.17326 -69.17200 36764 ft 552 kts 45°
2026-05-07 03:44 46.22640 -69.09200 36758 ft 552 kts 45°
2026-05-07 03:44 46.27981 -69.01136 36773 ft 556 kts 46°
2026-05-07 03:45 46.33289 -68.93093 36763 ft 555 kts 46°
2026-05-07 03:45 46.38620 -68.84992 36761 ft 556 kts 46°
2026-05-07 03:46 46.43971 -68.76843 36767 ft 560 kts 47°
2026-05-07 03:46 46.49340 -68.68639 36748 ft 560 kts 47°
2026-05-07 03:47 46.54700 -68.60422 36734 ft 561 kts 47°
2026-05-07 03:47 46.60056 -68.52183 36721 ft 564 kts 47°
2026-05-07 03:48 46.65430 -68.43884 36705 ft 563 kts 47°
2026-05-07 03:48 46.70803 -68.35576 36719 ft 563 kts 47°
2026-05-07 03:49 46.76173 -68.27240 36717 ft 564 kts 48°
2026-05-07 03:49 46.81535 -68.18885 36704 ft 563 kts 48°
2026-05-07 03:50 46.86898 -68.10513 36716 ft 563 kts 48°
2026-05-07 03:50 46.92247 -68.02132 36703 ft 563 kts 48°
2026-05-07 03:51 46.97587 -67.93743 36694 ft 563 kts 48°
2026-05-07 03:51 47.02894 -67.85372 36706 ft 564 kts 48°
2026-05-07 03:52 47.08220 -67.76945 36693 ft 563 kts 48°
2026-05-07 03:52 47.13554 -67.68490 36701 ft 563 kts 48°
2026-05-07 03:53 47.18875 -67.60014 36699 ft 564 kts 48°
2026-05-07 03:53 47.24187 -67.51527 36692 ft 563 kts 48°
2026-05-07 03:54 47.29488 -67.43039 36707 ft 563 kts 49°
2026-05-07 03:54 47.34775 -67.34598 36698 ft 563 kts 47°
2026-05-07 03:55 47.40173 -67.26215 36695 ft 563 kts 47°
2026-05-07 03:55 47.45616 -67.17883 36707 ft 564 kts 46°
2026-05-07 03:56 47.51079 -67.09573 36694 ft 563 kts 46°
2026-05-07 03:56 47.56554 -67.01236 36704 ft 565 kts 47°
2026-05-07 03:57 47.62033 -66.92858 36725 ft 566 kts 47°
2026-05-07 03:57 47.67507 -66.84458 36740 ft 567 kts 47°
2026-05-07 03:58 47.72988 -66.76019 36748 ft 568 kts 47°
2026-05-07 03:58 47.78477 -66.67545 36751 ft 570 kts 47°
2026-05-07 03:59 47.83970 -66.59034 36764 ft 570 kts 47°
2026-05-07 03:59 47.89452 -66.50513 36754 ft 570 kts 47°
2026-05-07 04:00 47.94930 -66.41970 36757 ft 570 kts 47°
2026-05-07 04:00 48.00397 -66.33416 36764 ft 570 kts 47°
2026-05-07 04:01 48.05860 -66.24842 36752 ft 570 kts 48°
2026-05-07 04:01 48.11312 -66.16255 36762 ft 569 kts 48°
2026-05-07 04:02 48.16749 -66.07663 36759 ft 567 kts 47°
2026-05-07 04:02 48.22166 -65.99078 36753 ft 566 kts 47°
2026-05-07 04:03 48.27568 -65.90486 36765 ft 565 kts 47°
2026-05-07 04:03 48.32958 -65.81886 36754 ft 565 kts 48°
2026-05-07 04:04 48.38349 -65.73255 36758 ft 564 kts 48°
2026-05-07 04:04 48.43718 -65.64629 36763 ft 565 kts 48°
2026-05-07 04:05 48.49080 -65.55986 36752 ft 563 kts 48°
2026-05-07 04:05 48.54426 -65.47340 36762 ft 563 kts 48°
2026-05-07 04:06 48.59737 -65.38722 36760 ft 563 kts 48°
2026-05-07 04:06 48.65081 -65.30023 36753 ft 565 kts 48°
2026-05-07 04:07 48.70421 -65.21304 36765 ft 565 kts 48°
2026-05-07 04:07 48.75762 -65.12552 36753 ft 565 kts 48°
2026-05-07 04:08 48.81087 -65.03795 36758 ft 565 kts 49°
2026-05-07 04:08 48.86423 -64.94992 36763 ft 565 kts 49°
2026-05-07 04:09 48.91714 -64.86232 36751 ft 565 kts 49°
2026-05-07 04:09 48.97029 -64.77404 36763 ft 565 kts 49°
2026-05-07 04:10 49.02341 -64.68549 36758 ft 566 kts 49°
2026-05-07 04:10 49.07643 -64.59683 36753 ft 566 kts 49°
2026-05-07 04:11 49.12941 -64.50793 36765 ft 566 kts 49°
2026-05-07 04:11 49.18239 -64.41870 36777 ft 566 kts 49°
2026-05-07 04:12 49.23526 -64.32937 36791 ft 567 kts 49°
2026-05-07 04:12 49.28816 -64.23967 36811 ft 567 kts 49°
2026-05-07 04:13 49.34094 -64.14989 36825 ft 567 kts 49°
2026-05-07 04:13 49.39368 -64.05984 36832 ft 567 kts 49°
2026-05-07 04:14 49.43749 -63.98481 36829 ft 567 kts 49°
2026-05-07 04:14 49.49013 -63.89435 36841 ft 567 kts 49°
2026-05-07 04:15 49.54266 -63.80378 36853 ft 567 kts 49°
2026-05-07 04:15 49.59520 -63.71288 36842 ft 567 kts 49°
2026-05-07 04:16 49.64757 -63.62195 36847 ft 567 kts 49°
2026-05-07 04:16 49.69958 -63.53132 36852 ft 567 kts 49°
2026-05-07 04:17 49.75194 -63.43977 36840 ft 567 kts 50°
2026-05-07 04:17 49.80408 -63.34827 36851 ft 567 kts 50°
2026-05-07 04:18 49.85621 -63.25646 36847 ft 567 kts 50°
2026-05-07 04:18 49.90826 -63.16448 36842 ft 567 kts 50°
2026-05-07 04:19 49.96022 -63.07232 36854 ft 567 kts 50°
2026-05-07 04:19 50.01213 -62.97990 36842 ft 568 kts 50°
2026-05-07 04:20 50.06397 -62.88722 36848 ft 568 kts 50°
2026-05-07 04:20 50.11583 -62.79422 36851 ft 568 kts 50°
2026-05-07 04:21 50.19313 -62.65500 36845 ft 568 kts 50°
2026-05-07 04:21 50.24481 -62.56153 36853 ft 569 kts 50°
2026-05-07 04:22 50.29654 -62.46761 36840 ft 569 kts 50°
2026-05-07 04:22 50.34810 -62.37366 36850 ft 569 kts 50°
2026-05-07 04:23 50.39965 -62.27938 36849 ft 569 kts 51°
2026-05-07 04:23 50.45108 -62.18498 36841 ft 569 kts 51°
2026-05-07 04:24 50.50246 -62.09034 36855 ft 570 kts 50°
2026-05-07 04:24 50.55382 -61.99547 36856 ft 570 kts 50°
2026-05-07 04:25 50.60510 -61.90033 36848 ft 569 kts 50°
2026-05-07 04:25 50.65605 -61.80539 36865 ft 570 kts 50°
2026-05-07 04:26 50.70751 -61.70915 36877 ft 570 kts 50°
2026-05-07 04:26 50.75862 -61.61324 36865 ft 570 kts 50°
2026-05-07 04:27 50.80931 -61.51777 36872 ft 570 kts 50°
2026-05-07 04:27 50.86026 -61.42143 36875 ft 571 kts 51°
2026-05-07 04:28 50.91114 -61.32488 36864 ft 571 kts 51°
2026-05-07 04:28 50.96195 -61.22811 36877 ft 571 kts 51°
2026-05-07 04:29 51.01275 -61.13097 36870 ft 571 kts 51°
2026-05-07 04:29 51.06348 -61.03362 36868 ft 571 kts 51°
2026-05-07 04:30 51.11384 -60.93659 36878 ft 571 kts 51°
2026-05-07 04:30 51.16442 -60.83879 36867 ft 573 kts 51°
2026-05-07 04:31 51.21502 -60.74062 36874 ft 573 kts 51°
2026-05-07 04:31 51.26556 -60.64216 36874 ft 573 kts 51°
2026-05-07 04:32 51.31602 -60.54345 36865 ft 573 kts 51°
2026-05-07 04:32 51.36639 -60.44455 36878 ft 573 kts 51°
2026-05-07 04:33 51.41670 -60.34537 36868 ft 573 kts 51°
2026-05-07 04:33 51.46680 -60.24622 36869 ft 573 kts 51°
2026-05-07 04:34 51.51694 -60.14663 36877 ft 573 kts 51°
2026-05-07 04:34 51.56658 -60.04762 36864 ft 573 kts 51°
2026-05-07 04:35 51.61646 -59.94770 36881 ft 570 kts 51°
2026-05-07 04:35 51.66598 -59.84809 36903 ft 570 kts 51°
2026-05-07 04:36 51.71548 -59.74820 36917 ft 570 kts 51°
2026-05-07 04:36 51.76493 -59.64805 36908 ft 570 kts 51°
2026-05-07 04:37 51.81389 -59.54848 36911 ft 569 kts 51°
2026-05-07 04:37 51.86309 -59.44804 36919 ft 569 kts 51°
2026-05-07 04:38 51.91222 -59.34736 36906 ft 569 kts 51°
2026-05-07 04:38 51.96123 -59.24652 36916 ft 569 kts 51°
2026-05-07 04:39 52.01013 -59.14550 36914 ft 570 kts 51°
2026-05-07 04:39 52.05877 -59.04465 36919 ft 565 kts 51°
2026-05-07 04:40 52.10732 -58.94361 36930 ft 567 kts 51°
2026-05-07 04:40 52.15586 -58.84217 36915 ft 567 kts 51°
2026-05-07 04:41 52.20425 -58.74062 36917 ft 568 kts 51°
2026-05-07 04:41 52.25271 -58.63855 36921 ft 569 kts 52°
2026-05-07 04:42 52.30117 -58.53604 36907 ft 569 kts 52°
2026-05-07 04:42 52.34915 -58.43413 36917 ft 569 kts 52°
2026-05-07 04:43 52.39744 -58.33114 36913 ft 569 kts 52°
2026-05-07 04:43 52.44550 -58.22823 36909 ft 568 kts 52°
2026-05-07 04:44 52.49348 -58.12510 36922 ft 568 kts 52°
2026-05-07 04:44 52.54132 -58.02183 36913 ft 568 kts 52°
2026-05-07 04:45 52.58905 -57.91838 36922 ft 567 kts 52°
2026-05-07 04:45 52.63664 -57.81475 36923 ft 567 kts 52°
2026-05-07 04:46 52.68376 -57.71174 36922 ft 566 kts 53°
2026-05-07 04:46 52.73104 -57.60799 36937 ft 565 kts 53°
2026-05-07 04:47 52.77808 -57.50437 36939 ft 564 kts 53°
2026-05-07 04:47 52.82506 -57.40046 36939 ft 563 kts 53°
2026-05-07 04:48 52.87181 -57.29662 36950 ft 563 kts 53°
2026-05-07 04:48 52.91857 -57.19238 36939 ft 561 kts 53°
2026-05-07 04:49 52.96511 -57.08819 36935 ft 562 kts 53°
2026-05-07 04:49 53.01134 -56.98427 36940 ft 562 kts 53°
2026-05-07 04:50 53.05770 -56.87958 36924 ft 562 kts 53°
2026-05-07 04:50 53.10261 -56.77310 36918 ft 562 kts 58°
2026-05-07 04:51 53.14228 -56.66095 36914 ft 562 kts 62°
2026-05-07 04:51 53.17936 -56.54629 36902 ft 561 kts 64°
2026-05-07 04:52 53.21575 -56.43097 36912 ft 561 kts 64°
2026-05-07 04:52 53.25212 -56.31554 36901 ft 562 kts 64°
2026-05-07 04:53 53.28851 -56.19990 36896 ft 561 kts 64°
2026-05-07 04:53 53.32454 -56.08495 36906 ft 562 kts 64°
2026-05-07 04:54 53.36071 -55.96901 36893 ft 562 kts 64°
2026-05-07 04:54 53.39678 -55.85281 36898 ft 561 kts 64°
2026-05-07 04:55 53.43266 -55.73668 36901 ft 562 kts 64°
2026-05-07 04:55 53.46852 -55.62003 36890 ft 561 kts 64°
2026-05-07 04:56 53.49820 -55.52305 36900 ft 561 kts 64°
2026-05-07 04:56 53.53385 -55.40605 36898 ft 562 kts 65°
2026-05-07 04:57 53.56936 -55.28915 36896 ft 558 kts 64°
2026-05-07 04:57 53.60442 -55.17363 36912 ft 557 kts 64°
2026-05-07 04:58 53.63948 -55.05712 36917 ft 557 kts 64°
2026-05-07 04:58 53.67426 -54.94067 36919 ft 554 kts 64°
2026-05-07 04:59 53.70869 -54.82467 36937 ft 553 kts 64°
2026-05-07 04:59 53.74310 -54.70827 36948 ft 553 kts 64°
2026-05-07 05:00 53.77735 -54.59197 36938 ft 553 kts 64°
2026-05-07 05:00 53.81149 -54.47543 36947 ft 552 kts 64°
2026-05-07 05:01 53.84551 -54.35878 36949 ft 553 kts 64°
2026-05-07 05:01 53.87941 -54.24192 36939 ft 552 kts 64°
2026-05-07 05:02 53.91313 -54.12509 36953 ft 551 kts 64°
2026-05-07 05:02 53.94678 -54.00810 36960 ft 551 kts 64°
2026-05-07 05:03 53.98012 -53.89154 36946 ft 552 kts 64°
2026-05-07 05:03 54.01350 -53.77418 36951 ft 552 kts 64°
2026-05-07 05:04 54.04680 -53.65648 36951 ft 552 kts 64°
2026-05-07 05:04 54.08000 -53.53855 36940 ft 552 kts 64°
2026-05-07 05:05 54.11305 -53.42055 36951 ft 552 kts 64°
2026-05-07 05:05 54.14601 -53.30225 36944 ft 552 kts 64°
2026-05-07 05:06 54.17891 -53.18357 36941 ft 552 kts 64°
2026-05-07 05:06 54.21165 -53.06487 36952 ft 552 kts 65°
2026-05-07 05:07 54.24431 -52.94585 36941 ft 552 kts 65°
2026-05-07 05:07 54.27681 -52.82679 36949 ft 552 kts 65°
2026-05-07 05:08 54.30895 -52.70843 36954 ft 552 kts 65°
2026-05-07 05:08 54.34117 -52.58917 36945 ft 551 kts 65°
2026-05-07 05:09 54.37321 -52.46984 36967 ft 549 kts 64°
2026-05-07 05:09 54.40480 -52.35153 36976 ft 544 kts 64°
2026-05-07 05:10 54.43634 -52.23304 36984 ft 546 kts 64°
2026-05-07 05:10 54.46781 -52.11415 36969 ft 546 kts 64°
2026-05-07 05:11 54.49896 -51.99580 36973 ft 547 kts 64°
2026-05-07 05:11 54.53029 -51.87615 36973 ft 547 kts 64°
2026-05-07 05:12 54.56149 -51.75634 36961 ft 548 kts 64°
2026-05-07 05:12 54.59253 -51.63649 36972 ft 548 kts 64°
2026-05-07 05:13 54.62352 -51.51623 36965 ft 548 kts 65°
2026-05-07 05:13 54.65439 -51.39574 36963 ft 548 kts 65°
2026-05-07 05:14 54.68510 -51.27527 36975 ft 548 kts 65°
2026-05-07 05:14 54.71566 -51.15470 36965 ft 547 kts 65°
2026-05-07 05:15 54.74586 -51.03493 36975 ft 546 kts 65°
2026-05-07 05:15 54.77610 -50.91435 36985 ft 545 kts 65°
2026-05-07 05:16 54.80614 -50.79391 36982 ft 544 kts 65°
2026-05-07 05:16 54.83599 -50.67360 36995 ft 543 kts 65°
2026-05-07 05:17 54.86585 -50.55262 37008 ft 541 kts 65°
2026-05-07 05:17 54.89522 -50.43302 37014 ft 539 kts 65°
2026-05-07 05:18 54.92446 -50.31324 37024 ft 538 kts 65°
2026-05-07 05:18 54.95353 -50.19347 37034 ft 537 kts 65°
2026-05-07 05:19 54.98241 -50.07377 37035 ft 536 kts 65°
2026-05-07 05:19 55.00695 -49.95129 37054 ft 536 kts 73°
2026-05-07 05:20 55.02557 -49.82541 37037 ft 536 kts 76°
2026-05-07 05:20 55.04301 -49.69921 37048 ft 535 kts 76°
2026-05-07 05:21 55.06925 -49.51064 37051 ft 535 kts 76°
2026-05-07 05:22 55.08694 -49.38349 37048 ft 535 kts 76°
2026-05-07 05:22 55.10427 -49.25795 37060 ft 535 kts 76°
2026-05-07 05:23 55.12157 -49.13152 37048 ft 535 kts 76°
2026-05-07 05:23 55.13873 -49.00501 37054 ft 535 kts 76°
2026-05-07 05:24 55.15576 -48.87841 37060 ft 535 kts 76°
2026-05-07 05:24 55.17266 -48.75161 37049 ft 534 kts 76°
2026-05-07 05:25 55.18942 -48.62488 37063 ft 534 kts 76°
2026-05-07 05:25 55.20593 -48.49889 37064 ft 534 kts 76°
2026-05-07 05:26 55.22240 -48.37209 37063 ft 534 kts 76°
2026-05-07 05:26 55.23873 -48.24523 37078 ft 533 kts 76°
2026-05-07 05:27 55.25491 -48.11846 37081 ft 533 kts 76°
2026-05-07 05:27 55.27096 -47.99160 37084 ft 532 kts 76°
2026-05-07 05:28 55.28684 -47.86492 37098 ft 532 kts 76°
2026-05-07 05:28 55.30260 -47.73801 37097 ft 531 kts 76°
2026-05-07 05:29 55.31833 -47.61128 37104 ft 530 kts 76°
2026-05-07 05:29 55.33391 -47.48470 37113 ft 530 kts 76°
2026-05-07 05:30 55.34925 -47.35791 37103 ft 529 kts 76°
2026-05-07 05:30 55.36437 -47.23154 37114 ft 528 kts 76°
2026-05-07 05:31 55.37927 -47.10588 37115 ft 528 kts 76°
2026-05-07 05:31 55.39415 -46.97920 37106 ft 528 kts 76°
2026-05-07 05:32 55.40890 -46.85244 37118 ft 528 kts 76°
2026-05-07 05:32 55.42352 -46.72559 37110 ft 528 kts 76°
2026-05-07 05:33 55.43800 -46.59862 37110 ft 528 kts 76°
2026-05-07 05:33 55.45225 -46.47248 37119 ft 529 kts 76°
2026-05-07 05:34 55.46647 -46.34541 37107 ft 528 kts 76°
2026-05-07 05:34 55.48056 -46.21820 37117 ft 528 kts 77°
2026-05-07 05:35 55.49454 -46.09069 37119 ft 529 kts 77°
2026-05-07 05:35 55.50835 -45.96326 37117 ft 527 kts 76°
2026-05-07 05:36 55.52201 -45.83602 37137 ft 528 kts 77°
2026-05-07 05:36 55.53556 -45.70849 37148 ft 528 kts 77°
2026-05-07 05:37 55.54892 -45.58152 37144 ft 528 kts 77°
2026-05-07 05:37 55.56002 -45.47492 37152 ft 528 kts 77°
2026-05-07 05:38 55.57320 -45.34722 37162 ft 528 kts 77°
2026-05-07 05:38 55.58834 -45.19865 37157 ft 528 kts 77°
2026-05-07 05:39 55.59916 -45.09145 37168 ft 528 kts 77°
2026-05-07 05:39 55.61193 -44.96342 37181 ft 527 kts 76°
2026-05-07 05:40 55.62450 -44.83621 37205 ft 525 kts 76°
2026-05-07 05:40 55.63697 -44.70882 37223 ft 526 kts 77°
2026-05-07 05:41 55.64922 -44.58198 37221 ft 526 kts 77°
2026-05-07 05:41 55.66140 -44.45437 37214 ft 525 kts 77°
2026-05-07 05:42 55.67345 -44.32668 37227 ft 525 kts 77°
2026-05-07 05:42 55.68537 -44.19883 37217 ft 525 kts 77°
2026-05-07 05:43 55.69716 -44.07088 37219 ft 525 kts 77°
2026-05-07 05:43 55.70881 -43.94300 37227 ft 525 kts 77°
2026-05-07 05:44 55.72031 -43.81511 37215 ft 525 kts 77°
2026-05-07 05:44 55.73170 -43.68701 37226 ft 525 kts 77°
2026-05-07 05:45 55.74295 -43.55887 37225 ft 525 kts 77°
2026-05-07 05:45 55.75404 -43.43085 37218 ft 525 kts 78°
2026-05-07 05:46 55.76490 -43.30357 37240 ft 520 kts 77°
2026-05-07 05:46 55.77560 -43.17658 37256 ft 520 kts 77°
2026-05-07 05:47 55.78620 -43.04961 37265 ft 520 kts 78°
2026-05-07 05:47 55.79668 -42.92241 37255 ft 519 kts 78°
2026-05-07 05:48 55.80702 -42.79523 37268 ft 519 kts 78°
2026-05-07 05:48 55.81723 -42.66799 37269 ft 520 kts 78°
2026-05-07 05:49 55.82729 -42.54085 37263 ft 519 kts 78°
2026-05-07 05:49 55.83718 -42.41420 37277 ft 519 kts 78°
2026-05-07 05:50 55.84700 -42.28673 37271 ft 519 kts 78°
2026-05-07 05:50 55.85667 -42.15931 37272 ft 519 kts 78°
2026-05-07 05:51 55.86622 -42.03177 37282 ft 519 kts 78°
2026-05-07 05:51 55.87562 -41.90436 37270 ft 519 kts 78°
2026-05-07 05:52 55.88490 -41.77686 37278 ft 519 kts 79°
2026-05-07 05:52 55.89404 -41.64932 37280 ft 519 kts 79°
2026-05-07 05:53 55.90299 -41.52247 37269 ft 519 kts 79°
2026-05-07 05:53 55.91187 -41.39475 37281 ft 519 kts 79°
2026-05-07 05:54 55.92061 -41.26711 37273 ft 519 kts 79°
2026-05-07 05:54 55.92922 -41.13942 37271 ft 518 kts 79°
2026-05-07 05:55 55.93769 -41.01175 37284 ft 516 kts 79°
2026-05-07 05:55 55.94603 -40.88452 37273 ft 516 kts 79°
2026-05-07 05:56 55.95424 -40.75714 37282 ft 516 kts 79°
2026-05-07 05:56 55.96229 -40.62977 37279 ft 516 kts 79°
2026-05-07 05:57 55.97016 -40.50305 37274 ft 516 kts 79°
2026-05-07 05:57 55.97794 -40.37560 37287 ft 516 kts 79°
2026-05-07 05:58 55.98559 -40.24808 37277 ft 516 kts 79°
2026-05-07 05:58 55.99312 -40.12030 37282 ft 516 kts 80°
2026-05-07 05:59 56.00446 -39.99413 37293 ft 513 kts 74°
2026-05-07 05:59 56.01956 -39.86975 37278 ft 511 kts 72°
2026-05-07 06:00 56.03647 -39.74625 37289 ft 510 kts 71°
2026-05-07 06:00 56.05383 -39.62306 37293 ft 511 kts 71°
2026-05-07 06:01 56.07112 -39.49976 37283 ft 510 kts 71°
2026-05-07 06:01 56.08824 -39.37642 37296 ft 510 kts 71°
2026-05-07 06:02 56.10523 -39.25290 37291 ft 511 kts 71°
2026-05-07 06:02 56.12198 -39.13006 37289 ft 510 kts 71°
2026-05-07 06:03 56.13874 -39.00613 37300 ft 511 kts 71°
2026-05-07 06:03 56.15538 -38.88211 37289 ft 511 kts 71°
2026-05-07 06:04 56.17187 -38.75815 37295 ft 510 kts 71°
2026-05-07 06:04 56.18814 -38.63480 37299 ft 511 kts 71°
2026-05-07 06:05 56.20437 -38.51068 37290 ft 510 kts 72°
2026-05-07 06:05 56.22023 -38.38680 37301 ft 507 kts 72°
2026-05-07 06:06 56.23602 -38.26314 37300 ft 508 kts 72°
2026-05-07 06:06 56.25181 -38.13905 37292 ft 508 kts 72°
2026-05-07 06:07 56.26776 -38.01372 37354 ft 520 kts 73°
2026-05-07 06:07 56.28365 -37.88722 37367 ft 519 kts 73°
2026-05-07 06:08 56.29937 -37.76035 37370 ft 518 kts 73°
2026-05-07 06:08 56.31497 -37.63354 37366 ft 519 kts 73°
2026-05-07 06:09 56.33046 -37.50647 37364 ft 518 kts 73°
2026-05-07 06:09 56.34564 -37.38030 37362 ft 511 kts 73°
2026-05-07 06:10 56.36060 -37.25504 37362 ft 511 kts 73°
2026-05-07 06:10 56.37543 -37.13001 37368 ft 512 kts 73°
2026-05-07 06:11 56.39019 -37.00438 37355 ft 512 kts 73°
2026-05-07 06:11 56.40483 -36.87860 37365 ft 512 kts 73°
2026-05-07 06:12 56.41933 -36.75275 37361 ft 512 kts 73°
2026-05-07 06:12 56.43367 -36.62733 37351 ft 509 kts 73°
2026-05-07 06:13 56.44791 -36.50172 37366 ft 510 kts 73°
2026-05-07 06:13 56.46200 -36.37605 37354 ft 510 kts 74°
2026-05-07 06:14 56.47595 -36.25020 37356 ft 510 kts 74°
2026-05-07 06:14 56.48979 -36.12415 37362 ft 510 kts 74°
2026-05-07 06:15 56.50348 -35.99818 37350 ft 510 kts 74°
2026-05-07 06:15 56.51706 -35.87203 37360 ft 510 kts 74°
2026-05-07 06:16 56.53043 -35.74650 37357 ft 511 kts 74°
2026-05-07 06:16 56.54376 -35.62012 37350 ft 510 kts 74°
2026-05-07 06:17 56.55696 -35.49363 37362 ft 511 kts 75°
2026-05-07 06:17 56.57004 -35.36697 37351 ft 511 kts 75°
2026-05-07 06:18 56.58299 -35.24013 37351 ft 511 kts 75°
2026-05-07 06:18 56.59579 -35.11320 37341 ft 511 kts 75°
2026-05-07 06:19 56.60634 -35.00763 37343 ft 511 kts 75°
2026-05-07 06:19 56.62096 -34.85989 37349 ft 512 kts 75°
2026-05-07 06:20 56.63342 -34.73259 37338 ft 512 kts 75°
2026-05-07 06:20 56.64375 -34.62590 37348 ft 512 kts 75°
2026-05-07 06:21 56.65591 -34.49909 37345 ft 512 kts 76°
2026-05-07 06:21 56.66801 -34.37142 37338 ft 512 kts 76°
2026-05-07 06:22 56.67998 -34.24356 37350 ft 513 kts 76°
2026-05-07 06:22 56.69773 -34.05136 37336 ft 513 kts 76°
2026-05-07 06:23 56.70939 -33.92324 37348 ft 513 kts 76°
2026-05-07 06:23 56.72093 -33.79485 37341 ft 514 kts 76°
2026-05-07 06:24 56.73228 -33.66698 37338 ft 514 kts 76°
2026-05-07 06:24 56.74364 -33.53758 37348 ft 514 kts 76°
2026-05-07 06:25 56.75480 -33.40874 37335 ft 514 kts 76°
2026-05-07 06:25 56.76575 -33.28079 37342 ft 515 kts 77°
2026-05-07 06:26 56.77667 -33.15154 37343 ft 515 kts 77°
2026-05-07 06:26 56.78744 -33.02235 37332 ft 515 kts 77°
2026-05-07 06:27 56.79809 -32.89310 37344 ft 515 kts 77°
2026-05-07 06:27 56.80862 -32.76347 37336 ft 516 kts 77°
2026-05-07 06:28 56.81901 -32.63384 37333 ft 516 kts 77°
2026-05-07 06:28 56.82921 -32.50482 37342 ft 516 kts 77°
2026-05-07 06:29 56.83934 -32.37501 37329 ft 516 kts 77°
2026-05-07 06:29 56.84933 -32.24519 37335 ft 516 kts 78°
2026-05-07 06:30 56.85920 -32.11511 37335 ft 517 kts 78°
2026-05-07 06:30 56.86892 -31.98503 37324 ft 517 kts 78°
2026-05-07 06:31 56.87852 -31.85477 37336 ft 517 kts 78°
2026-05-07 06:31 56.88798 -31.72444 37327 ft 517 kts 78°
2026-05-07 06:32 56.89731 -31.59404 37324 ft 517 kts 78°
2026-05-07 06:32 56.90653 -31.46322 37333 ft 518 kts 78°
2026-05-07 06:33 56.91555 -31.33326 37320 ft 518 kts 78°
2026-05-07 06:33 56.92454 -31.20160 37327 ft 518 kts 79°
2026-05-07 06:34 56.93330 -31.07132 37328 ft 518 kts 79°
2026-05-07 06:34 56.94196 -30.94040 37318 ft 518 kts 79°
2026-05-07 06:35 56.95050 -30.80920 37330 ft 518 kts 79°
2026-05-07 06:35 56.95890 -30.67795 37322 ft 518 kts 79°
2026-05-07 06:36 56.96716 -30.54669 37322 ft 518 kts 79°
2026-05-07 06:36 56.97523 -30.41613 37331 ft 518 kts 79°
2026-05-07 06:37 56.98322 -30.28470 37318 ft 518 kts 79°
2026-05-07 06:37 56.99107 -30.15328 37327 ft 518 kts 79°
2026-05-07 06:38 56.99867 -30.02179 37328 ft 519 kts 80°
2026-05-07 06:38 57.00459 -29.88921 37284 ft 522 kts 82°
2026-05-07 06:39 57.00967 -29.75646 37258 ft 521 kts 82°
2026-05-07 06:39 57.01456 -29.62371 37243 ft 521 kts 83°
2026-05-07 06:40 57.01937 -29.49084 37236 ft 521 kts 83°
2026-05-07 06:40 57.02406 -29.35808 37244 ft 522 kts 83°
2026-05-07 06:41 57.02859 -29.22580 37234 ft 522 kts 83°
2026-05-07 06:41 57.03300 -29.09281 37236 ft 522 kts 83°
2026-05-07 06:42 57.03729 -28.95959 37242 ft 522 kts 83°
2026-05-07 06:42 57.04143 -28.82632 37229 ft 522 kts 83°
2026-05-07 06:43 57.04539 -28.69408 37239 ft 522 kts 83°
2026-05-07 06:43 57.04925 -28.56073 37235 ft 522 kts 83°
2026-05-07 06:44 57.05296 -28.42747 37227 ft 522 kts 84°
2026-05-07 06:44 57.05654 -28.29417 37238 ft 522 kts 84°
2026-05-07 06:45 57.05997 -28.16076 37226 ft 523 kts 84°
2026-05-07 06:45 57.06326 -28.02727 37225 ft 522 kts 84°
2026-05-07 06:46 57.06641 -27.89381 37230 ft 523 kts 84°
2026-05-07 06:46 57.06942 -27.76039 37216 ft 523 kts 84°
2026-05-07 06:47 57.07228 -27.62692 37222 ft 523 kts 84°
2026-05-07 06:47 57.07501 -27.49339 37220 ft 523 kts 84°
2026-05-07 06:48 57.07760 -27.35953 37204 ft 523 kts 85°
2026-05-07 06:48 57.08005 -27.22579 37201 ft 523 kts 85°
2026-05-07 06:49 57.08235 -27.09194 37211 ft 524 kts 85°
2026-05-07 06:49 57.08450 -26.95816 37198 ft 524 kts 85°
2026-05-07 06:50 57.08652 -26.82429 37204 ft 523 kts 85°
2026-05-07 06:50 57.08838 -26.69136 37205 ft 524 kts 85°
2026-05-07 06:51 57.09011 -26.55722 37195 ft 523 kts 85°
2026-05-07 06:51 57.09170 -26.42335 37207 ft 524 kts 86°
2026-05-07 06:52 57.09315 -26.28941 37198 ft 524 kts 86°
2026-05-07 06:52 57.09445 -26.15544 37196 ft 523 kts 86°
2026-05-07 06:53 57.09561 -26.02152 37205 ft 524 kts 86°
2026-05-07 06:53 57.09663 -25.88757 37191 ft 523 kts 86°
2026-05-07 06:54 57.09750 -25.75464 37197 ft 523 kts 86°
2026-05-07 06:54 57.09823 -25.62067 37197 ft 523 kts 86°
2026-05-07 06:55 57.09882 -25.48666 37185 ft 523 kts 86°
2026-05-07 06:55 57.09927 -25.35279 37196 ft 523 kts 87°
2026-05-07 06:56 57.09957 -25.21964 37186 ft 523 kts 87°
2026-05-07 06:56 57.09973 -25.08588 37181 ft 522 kts 87°
2026-05-07 06:57 57.09976 -24.95207 37191 ft 523 kts 87°
2026-05-07 06:57 57.09963 -24.81834 37177 ft 522 kts 87°
2026-05-07 06:58 57.09937 -24.68481 37181 ft 522 kts 88°
2026-05-07 06:58 57.09896 -24.55130 37183 ft 522 kts 88°
2026-05-07 06:59 57.09841 -24.41744 37171 ft 522 kts 88°
2026-05-07 06:59 57.09772 -24.28355 37181 ft 522 kts 88°
2026-05-07 07:00 57.09689 -24.15060 37175 ft 522 kts 88°
2026-05-07 07:00 57.09591 -24.01692 37170 ft 522 kts 88°
2026-05-07 07:01 57.09480 -23.88353 37181 ft 522 kts 88°
2026-05-07 07:01 57.09354 -23.74990 37169 ft 522 kts 88°
2026-05-07 07:02 57.09238 -23.63864 37172 ft 522 kts 89°
2026-05-07 07:02 57.09086 -23.50496 37180 ft 522 kts 89°
2026-05-07 07:03 57.08920 -23.37140 37168 ft 522 kts 89°
2026-05-07 07:03 57.08740 -23.23777 37178 ft 522 kts 89°
2026-05-07 07:04 57.08546 -23.10484 37176 ft 523 kts 89°
2026-05-07 07:04 57.08337 -22.97125 37169 ft 522 kts 89°
2026-05-07 07:05 57.08114 -22.83757 37182 ft 523 kts 89°
2026-05-07 07:05 57.07877 -22.70391 37172 ft 523 kts 89°
2026-05-07 07:06 57.07625 -22.57035 37176 ft 523 kts 89°
2026-05-07 07:06 57.07362 -22.43647 37135 ft 526 kts 90°
2026-05-07 07:07 57.07083 -22.30286 37111 ft 525 kts 91°
2026-05-07 07:07 57.06787 -22.16878 37094 ft 525 kts 91°
2026-05-07 07:08 57.06477 -22.03454 37080 ft 525 kts 91°
2026-05-07 07:08 57.06153 -21.90042 37068 ft 525 kts 91°
2026-05-07 07:09 57.05814 -21.76622 37062 ft 525 kts 91°
2026-05-07 07:09 57.05463 -21.63301 37063 ft 525 kts 91°
2026-05-07 07:10 57.05095 -21.49871 37052 ft 525 kts 91°
2026-05-07 07:10 57.04713 -21.36456 37056 ft 525 kts 92°
2026-05-07 07:11 57.04317 -21.23040 37053 ft 525 kts 92°
2026-05-07 07:11 57.03907 -21.09639 37042 ft 525 kts 92°
2026-05-07 07:12 57.03482 -20.96237 37051 ft 525 kts 92°
2026-05-07 07:12 57.03045 -20.82901 37040 ft 526 kts 92°
2026-05-07 07:13 57.02592 -20.69502 37032 ft 526 kts 92°
2026-05-07 07:13 57.02124 -20.56111 37036 ft 526 kts 92°
2026-05-07 07:14 57.01642 -20.42698 37022 ft 526 kts 93°
2026-05-07 07:14 57.01145 -20.29300 37011 ft 526 kts 93°
2026-05-07 07:15 57.00636 -20.15960 37006 ft 526 kts 93°
2026-05-07 07:15 56.99831 -20.02622 36994 ft 527 kts 101°
2026-05-07 07:16 56.98185 -19.89506 36985 ft 527 kts 104°
2026-05-07 07:16 56.96167 -19.76582 36967 ft 527 kts 108°
2026-05-07 07:17 56.93930 -19.63793 36952 ft 527 kts 109°
2026-05-07 07:17 56.91634 -19.51062 36938 ft 526 kts 109°
2026-05-07 07:18 56.89342 -19.38345 36914 ft 525 kts 109°
2026-05-07 07:18 56.87036 -19.25661 36898 ft 525 kts 109°
2026-05-07 07:19 56.84710 -19.12984 36886 ft 525 kts 109°
2026-05-07 07:19 56.82374 -19.00343 36888 ft 525 kts 110°
2026-05-07 07:20 56.80041 -18.87811 36883 ft 525 kts 110°
2026-05-07 07:20 56.77675 -18.75182 36876 ft 525 kts 110°
2026-05-07 07:21 56.75297 -18.62575 36886 ft 525 kts 110°
2026-05-07 07:21 56.72906 -18.49975 36874 ft 525 kts 110°
2026-05-07 07:22 56.70507 -18.37423 36877 ft 525 kts 110°
2026-05-07 07:22 56.68096 -18.24886 36882 ft 525 kts 110°
2026-05-07 07:23 56.65674 -18.12378 36869 ft 525 kts 110°
2026-05-07 07:23 56.63251 -17.99940 36878 ft 525 kts 111°
2026-05-07 07:24 56.60801 -17.87445 36873 ft 525 kts 111°
2026-05-07 07:24 56.58339 -17.74968 36864 ft 524 kts 111°
2026-05-07 07:25 56.54623 -17.56290 36868 ft 525 kts 111°
2026-05-07 07:26 56.52129 -17.43851 36854 ft 524 kts 111°
2026-05-07 07:26 56.49644 -17.31531 36858 ft 524 kts 111°
2026-05-07 07:27 56.47125 -17.19123 36850 ft 525 kts 111°
2026-05-07 07:27 56.44595 -17.06741 36839 ft 524 kts 112°
2026-05-07 07:28 56.42054 -16.94376 36842 ft 524 kts 112°
2026-05-07 07:28 56.39500 -16.82028 36831 ft 525 kts 112°
2026-05-07 07:29 56.36949 -16.69766 36822 ft 524 kts 112°
2026-05-07 07:29 56.34372 -16.57461 36825 ft 524 kts 112°
2026-05-07 07:30 56.31783 -16.45166 36812 ft 524 kts 112°
2026-05-07 07:30 56.29184 -16.32904 36809 ft 524 kts 112°
2026-05-07 07:31 56.26574 -16.20658 36810 ft 524 kts 112°
2026-05-07 07:31 56.23951 -16.08424 36798 ft 522 kts 113°
2026-05-07 07:32 56.21324 -15.96263 36804 ft 521 kts 114°
2026-05-07 07:32 56.18696 -15.84157 36794 ft 518 kts 114°
2026-05-07 07:33 56.16062 -15.72096 36782 ft 519 kts 114°
2026-05-07 07:33 56.13432 -15.60123 36794 ft 519 kts 114°
2026-05-07 07:34 56.10776 -15.48095 36794 ft 519 kts 115°
2026-05-07 07:34 56.08109 -15.36084 36790 ft 518 kts 115°
2026-05-07 07:35 56.05430 -15.24091 36804 ft 518 kts 115°
2026-05-07 07:35 56.02751 -15.12114 36793 ft 519 kts 113°
2026-05-07 07:36 56.01288 -14.99419 36813 ft 525 kts 99°
2026-05-07 07:36 56.00608 -14.86414 36782 ft 526 kts 96°
2026-05-07 07:37 56.00343 -14.73331 36763 ft 527 kts 93°
2026-05-07 07:37 56.00288 -14.60232 36769 ft 527 kts 92°
2026-05-07 07:38 56.00264 -14.47119 36777 ft 527 kts 92°
2026-05-07 07:38 56.00221 -14.34081 36765 ft 527 kts 92°
2026-05-07 07:39 56.00158 -14.20996 36777 ft 527 kts 92°
2026-05-07 07:39 56.00076 -14.07896 36775 ft 527 kts 94°
2026-05-07 07:40 55.98903 -13.95093 36785 ft 521 kts 107°
2026-05-07 07:40 55.96972 -13.82634 36769 ft 519 kts 110°
2026-05-07 07:41 55.94849 -13.70315 36776 ft 519 kts 111°
2026-05-07 07:41 55.92693 -13.58015 36786 ft 519 kts 111°
2026-05-07 07:42 55.90534 -13.45723 36774 ft 519 kts 111°
2026-05-07 07:42 55.88370 -13.33443 36782 ft 519 kts 111°
2026-05-07 07:43 55.86196 -13.21182 36783 ft 519 kts 111°
2026-05-07 07:43 55.84024 -13.09020 36775 ft 518 kts 111°
2026-05-07 07:44 55.81838 -12.96848 36794 ft 515 kts 111°
2026-05-07 07:44 55.79639 -12.84703 36808 ft 516 kts 111°
2026-05-07 07:45 55.77800 -12.74599 36800 ft 515 kts 112°
2026-05-07 07:45 55.75219 -12.60509 36804 ft 515 kts 112°
2026-05-07 07:46 55.73351 -12.50382 36812 ft 515 kts 112°
2026-05-07 07:46 55.71132 -12.38396 36803 ft 514 kts 111°
2026-05-07 07:47 55.68896 -12.26326 36817 ft 514 kts 112°
2026-05-07 07:47 55.66645 -12.14301 36817 ft 514 kts 112°
2026-05-07 07:48 55.64380 -12.02310 36812 ft 513 kts 112°
2026-05-07 07:48 55.62103 -11.90346 36826 ft 512 kts 112°
2026-05-07 07:49 55.59817 -11.78405 36822 ft 512 kts 112°
2026-05-07 07:49 55.57522 -11.66490 36825 ft 511 kts 112°
2026-05-07 07:50 55.55234 -11.54688 36838 ft 511 kts 112°
2026-05-07 07:50 55.52905 -11.42749 36832 ft 510 kts 112°
2026-05-07 07:51 55.50605 -11.31033 36848 ft 505 kts 112°
2026-05-07 07:51 55.48291 -11.19329 36869 ft 505 kts 112°
2026-05-07 07:52 55.45967 -11.07634 36881 ft 505 kts 112°
2026-05-07 07:52 55.43636 -10.95969 36872 ft 505 kts 113°
2026-05-07 07:53 55.41297 -10.84330 36878 ft 504 kts 113°
2026-05-07 07:53 55.38952 -10.72718 36890 ft 501 kts 113°
2026-05-07 07:54 55.36605 -10.61165 36884 ft 502 kts 113°
2026-05-07 07:54 55.34245 -10.49622 36880 ft 502 kts 113°
2026-05-07 07:55 55.31874 -10.38098 36891 ft 502 kts 113°
2026-05-07 07:55 55.29488 -10.26565 36879 ft 502 kts 113°
2026-05-07 07:56 55.27095 -10.15067 36886 ft 502 kts 113°
2026-05-07 07:56 55.24710 -10.03653 36890 ft 502 kts 113°
2026-05-07 07:57 55.22522 -9.92010 36879 ft 503 kts 110°
2026-05-07 07:57 55.20450 -9.80306 36892 ft 502 kts 110°
2026-05-07 07:58 55.18377 -9.68611 36897 ft 502 kts 110°
2026-05-07 07:58 55.16289 -9.56952 36891 ft 502 kts 110°
2026-05-07 07:59 55.14188 -9.45323 36906 ft 501 kts 110°
2026-05-07 07:59 55.12076 -9.33705 36908 ft 501 kts 110°
2026-05-07 08:00 55.09969 -9.22187 36908 ft 500 kts 110°
2026-05-07 08:00 55.07840 -9.10621 36922 ft 500 kts 110°
2026-05-07 08:01 55.05703 -8.99080 36919 ft 500 kts 110°
2026-05-07 08:01 55.03555 -8.87551 36923 ft 499 kts 110°
2026-05-07 08:02 55.01393 -8.76035 36935 ft 499 kts 111°
2026-05-07 08:02 54.99220 -8.64570 36933 ft 499 kts 111°
2026-05-07 08:03 54.97032 -8.53067 36931 ft 499 kts 111°
2026-05-07 08:03 54.94844 -8.41614 36941 ft 499 kts 111°
2026-05-07 08:04 54.92646 -8.30168 36928 ft 499 kts 111°
2026-05-07 08:04 54.90449 -8.18800 36937 ft 499 kts 111°
2026-05-07 08:05 54.88225 -8.07359 36939 ft 499 kts 111°
2026-05-07 08:05 54.85993 -7.95946 36929 ft 498 kts 111°
2026-05-07 08:06 54.83757 -7.84574 36941 ft 498 kts 111°
2026-05-07 08:06 54.81520 -7.73270 36934 ft 498 kts 111°
2026-05-07 08:07 54.79262 -7.61923 36932 ft 497 kts 111°
2026-05-07 08:07 54.76997 -7.50607 36942 ft 497 kts 111°
2026-05-07 08:08 54.74716 -7.39260 36940 ft 499 kts 111°
2026-05-07 08:08 54.72423 -7.27919 36951 ft 498 kts 111°
2026-05-07 08:09 54.70118 -7.16595 36940 ft 499 kts 111°
2026-05-07 08:09 54.67817 -7.05355 36949 ft 498 kts 111°
2026-05-07 08:10 54.65493 -6.94075 36957 ft 499 kts 111°
2026-05-07 08:10 54.63153 -6.82778 36948 ft 498 kts 111°
2026-05-07 08:11 54.60808 -6.71515 36961 ft 498 kts 111°
2026-05-07 08:11 54.58450 -6.60260 36962 ft 499 kts 112°
2026-05-07 08:12 54.56081 -6.49013 36956 ft 498 kts 112°
2026-05-07 08:12 54.53719 -6.37861 36969 ft 499 kts 112°
2026-05-07 08:13 54.51329 -6.26648 36961 ft 498 kts 112°
2026-05-07 08:13 54.48932 -6.15472 36964 ft 498 kts 112°
2026-05-07 08:14 54.46522 -6.04286 36971 ft 498 kts 112°
2026-05-07 08:14 54.44104 -5.93119 36958 ft 498 kts 112°
2026-05-07 08:15 54.41692 -5.82040 36969 ft 498 kts 112°
2026-05-07 08:15 54.39256 -5.70908 36966 ft 498 kts 112°
2026-05-07 08:16 54.36811 -5.59796 36959 ft 497 kts 112°
2026-05-07 08:16 54.34361 -5.48713 36974 ft 497 kts 112°
2026-05-07 08:17 54.31904 -5.37643 36975 ft 496 kts 112°
2026-05-07 08:17 54.29441 -5.26615 36970 ft 495 kts 112°
2026-05-07 08:18 54.26969 -5.15612 36985 ft 495 kts 112°
2026-05-07 08:18 54.24487 -5.04629 36982 ft 494 kts 112°
2026-05-07 08:19 54.22017 -4.93749 36984 ft 493 kts 112°
2026-05-07 08:19 54.19524 -4.82828 36996 ft 493 kts 112°
2026-05-07 08:20 54.17023 -4.71929 36987 ft 493 kts 112°
2026-05-07 08:20 54.14514 -4.61055 36994 ft 492 kts 112°
2026-05-07 08:21 54.11987 -4.50176 37001 ft 492 kts 112°
2026-05-07 08:21 54.09456 -4.39322 36989 ft 492 kts 112°
2026-05-07 08:22 54.06941 -4.28586 37001 ft 491 kts 112°
2026-05-07 08:22 54.04388 -4.17717 37015 ft 492 kts 112°
2026-05-07 08:23 54.01855 -4.06998 37015 ft 491 kts 112°
2026-05-07 08:23 53.99296 -3.96229 37027 ft 491 kts 112°
2026-05-07 08:24 53.96731 -3.85491 37038 ft 490 kts 112°
2026-05-07 08:24 53.94315 -3.74665 37036 ft 490 kts 110°
2026-05-07 08:25 53.91984 -3.63791 37049 ft 490 kts 110°
2026-05-07 08:25 53.89640 -3.52913 37060 ft 490 kts 110°
2026-05-07 08:26 53.86107 -3.36668 37048 ft 490 kts 110°
2026-05-07 08:26 53.83738 -3.25859 37060 ft 490 kts 110°
2026-05-07 08:27 53.81758 -3.16868 37052 ft 490 kts 110°
2026-05-07 08:27 53.79371 -3.06076 37050 ft 490 kts 111°
2026-05-07 08:28 53.76971 -2.95285 37060 ft 490 kts 111°
2026-05-07 08:28 53.74560 -2.84503 37048 ft 490 kts 111°
2026-05-07 08:29 53.72141 -2.73735 37055 ft 490 kts 111°
2026-05-07 08:29 53.69710 -2.62972 37057 ft 490 kts 111°
2026-05-07 08:30 53.67272 -2.52234 37047 ft 490 kts 111°
2026-05-07 08:30 53.64827 -2.41522 37063 ft 488 kts 111°
2026-05-07 08:31 53.62391 -2.30911 37078 ft 488 kts 111°
2026-05-07 08:31 53.59933 -2.20250 37079 ft 489 kts 112°
2026-05-07 08:32 53.57462 -2.09567 37072 ft 489 kts 112°
2026-05-07 08:32 53.54986 -1.98920 37084 ft 489 kts 112°
2026-05-07 08:33 53.52616 -1.88206 37076 ft 488 kts 109°
2026-05-07 08:33 53.50614 -1.77308 37063 ft 488 kts 107°
2026-05-07 08:34 53.48685 -1.66354 37074 ft 490 kts 107°
2026-05-07 08:34 53.46745 -1.55399 37057 ft 488 kts 107°
2026-05-07 08:35 53.44790 -1.44492 37051 ft 488 kts 107°
2026-05-07 08:35 53.42811 -1.33540 37338 ft 493 kts 107°
2026-05-07 08:36 53.41813 -1.28034 37665 ft 494 kts 107°
2026-05-07 08:36 53.40814 -1.22535 37998 ft 494 kts 107°
2026-05-07 08:36 53.39809 -1.17020 38333 ft 494 kts 107°
2026-05-07 08:36 53.38818 -1.11576 38658 ft 494 kts 107°
2026-05-07 08:37 53.37796 -1.05994 38964 ft 495 kts 107°
2026-05-07 08:37 53.36784 -1.00472 39265 ft 495 kts 107°
2026-05-07 08:37 53.35769 -0.94955 39548 ft 495 kts 108°
2026-05-07 08:37 53.34753 -0.89439 39830 ft 495 kts 108°
2026-05-07 08:38 53.33734 -0.83932 40091 ft 496 kts 108°
2026-05-07 08:38 53.32708 -0.78420 40351 ft 496 kts 108°
2026-05-07 08:38 53.31676 -0.72899 40612 ft 497 kts 108°
2026-05-07 08:38 53.30644 -0.67380 40860 ft 497 kts 108°
2026-05-07 08:39 53.29619 -0.61917 41019 ft 499 kts 108°
2026-05-07 08:39 53.28574 -0.56366 41067 ft 502 kts 108°
2026-05-07 08:39 53.26484 -0.45279 41077 ft 497 kts 108°
2026-05-07 08:40 53.24392 -0.34281 41086 ft 497 kts 108°
2026-05-07 08:40 53.22279 -0.23234 41084 ft 499 kts 108°
2026-05-07 08:41 53.20157 -0.12203 41077 ft 498 kts 108°
2026-05-07 08:41 53.18027 -0.01190 41089 ft 500 kts 108°
2026-05-07 08:42 53.15881 0.09841 41078 ft 500 kts 108°
2026-05-07 08:42 53.13727 0.20855 41084 ft 500 kts 109°
2026-05-07 08:43 53.11561 0.31863 41087 ft 500 kts 109°
2026-05-07 08:43 53.09388 0.42850 41077 ft 500 kts 109°
2026-05-07 08:44 53.07199 0.53851 41090 ft 501 kts 109°
2026-05-07 08:44 53.04997 0.64848 41097 ft 501 kts 109°
2026-05-07 08:45 53.02784 0.75837 41096 ft 501 kts 109°
2026-05-07 08:45 53.00559 0.86836 41111 ft 502 kts 109°
2026-05-07 08:46 52.98385 0.97853 41107 ft 503 kts 105°
2026-05-07 08:46 52.96823 1.09119 41109 ft 503 kts 102°
2026-05-07 08:47 52.95483 1.20590 41111 ft 502 kts 101°
2026-05-07 08:47 52.94169 1.31985 41120 ft 503 kts 101°
2026-05-07 08:48 52.92833 1.43369 41106 ft 503 kts 101°
2026-05-07 08:48 52.91484 1.54758 41121 ft 503 kts 101°
2026-05-07 08:49 52.90121 1.66141 41110 ft 504 kts 102°
2026-05-07 08:49 52.88750 1.77520 41111 ft 503 kts 102°
2026-05-07 08:50 52.87377 1.88808 41125 ft 504 kts 102°
2026-05-07 08:50 52.85979 2.00178 41107 ft 504 kts 102°
2026-05-07 08:51 52.84573 2.11531 41115 ft 504 kts 102°
2026-05-07 08:51 52.83152 2.22899 41114 ft 504 kts 102°
2026-05-07 08:52 52.81727 2.34232 41108 ft 504 kts 102°
2026-05-07 08:52 52.80284 2.45596 41116 ft 505 kts 102°
2026-05-07 08:53 52.78832 2.56961 41111 ft 506 kts 103°
2026-05-07 08:53 52.77364 2.68328 41099 ft 505 kts 103°
2026-05-07 08:54 52.75888 2.79678 41108 ft 506 kts 103°
2026-05-07 08:54 52.74400 2.91033 41099 ft 506 kts 103°
2026-05-07 08:55 52.72926 3.02389 41098 ft 506 kts 102°
2026-05-07 08:55 52.71529 3.13687 41098 ft 506 kts 102°
2026-05-07 08:56 52.70122 3.25054 41085 ft 505 kts 102°
2026-05-07 08:56 52.68700 3.36425 41096 ft 506 kts 102°
2026-05-07 08:57 52.67266 3.47779 41092 ft 506 kts 103°
2026-05-07 08:57 52.65821 3.59123 41086 ft 506 kts 103°
2026-05-07 08:58 52.64364 3.70468 41098 ft 506 kts 103°
2026-05-07 08:58 52.62896 3.81804 41086 ft 506 kts 103°
2026-05-07 08:59 52.61418 3.93126 41090 ft 506 kts 103°
2026-05-07 08:59 52.59938 4.04376 41096 ft 506 kts 103°
2026-05-07 09:00 52.58435 4.15699 41084 ft 506 kts 103°
2026-05-07 09:00 52.56921 4.27012 41094 ft 506 kts 103°
2026-05-07 09:01 52.55398 4.38312 41080 ft 506 kts 104°
2026-05-07 09:01 52.53872 4.49553 41081 ft 506 kts 104°
2026-05-07 09:02 52.52326 4.60853 41090 ft 507 kts 104°
2026-05-07 09:02 52.50784 4.72040 41077 ft 506 kts 104°
2026-05-07 09:03 52.49214 4.83347 41086 ft 506 kts 104°
2026-05-07 09:03 52.47907 4.92717 41081 ft 507 kts 104°
2026-05-07 09:04 52.46322 5.03994 41069 ft 506 kts 104°
2026-05-07 09:04 52.44727 5.15249 41077 ft 506 kts 104°
2026-05-07 09:05 52.43111 5.26559 41067 ft 507 kts 104°
2026-05-07 09:05 52.41501 5.37737 41057 ft 506 kts 104°
2026-05-07 09:06 52.39874 5.48959 41067 ft 506 kts 104°
2026-05-07 09:06 52.38236 5.60172 41057 ft 507 kts 104°
2026-05-07 09:07 52.36588 5.71377 41053 ft 506 kts 105°
2026-05-07 09:07 52.34927 5.82586 41066 ft 507 kts 105°
2026-05-07 09:08 52.33256 5.93784 41054 ft 506 kts 105°
2026-05-07 09:08 52.31574 6.04975 41059 ft 506 kts 105°
2026-05-07 09:09 52.29889 6.16096 41051 ft 506 kts 105°
2026-05-07 09:09 52.28188 6.27252 41039 ft 506 kts 105°
2026-05-07 09:10 52.26476 6.38398 41028 ft 506 kts 105°
2026-05-07 09:10 52.24755 6.49534 41038 ft 506 kts 105°
2026-05-07 09:11 52.23019 6.60683 41026 ft 506 kts 106°
2026-05-07 09:11 52.21275 6.71828 41020 ft 506 kts 106°
2026-05-07 09:12 52.19532 6.82872 41035 ft 506 kts 106°
2026-05-07 09:12 52.17766 6.93991 41021 ft 506 kts 106°
2026-05-07 09:13 52.16057 7.05104 41005 ft 507 kts 101°
2026-05-07 09:13 52.15710 7.16595 41037 ft 510 kts 90°
2026-05-07 09:14 52.16005 7.28140 41017 ft 510 kts 87°
2026-05-07 09:14 52.16491 7.39674 41025 ft 510 kts 87°
2026-05-07 09:15 52.17001 7.51154 41027 ft 510 kts 87°
2026-05-07 09:15 52.17507 7.62740 41017 ft 509 kts 87°
2026-05-07 09:16 52.17990 7.74208 41028 ft 509 kts 87°
2026-05-07 09:16 52.18464 7.85718 41024 ft 510 kts 87°
2026-05-07 09:17 52.18927 7.97240 41020 ft 509 kts 88°
2026-05-07 09:17 52.19379 8.08762 41024 ft 509 kts 88°
2026-05-07 09:18 52.19822 8.20294 41008 ft 509 kts 88°
2026-05-07 09:18 52.20254 8.31815 41018 ft 509 kts 88°
2026-05-07 09:19 52.20669 8.43281 41014 ft 510 kts 88°
2026-05-07 09:19 52.21075 8.54827 40998 ft 510 kts 88°
2026-05-07 09:20 52.21471 8.66377 41007 ft 511 kts 88°
2026-05-07 09:20 52.21857 8.77951 41014 ft 511 kts 88°
2026-05-07 09:21 52.22232 8.89520 41011 ft 511 kts 88°
2026-05-07 09:21 52.22596 9.01113 41026 ft 511 kts 88°
2026-05-07 09:22 52.22948 9.12703 41020 ft 511 kts 89°
2026-05-07 09:22 52.23294 9.24291 41020 ft 511 kts 88°
2026-05-07 09:23 52.24112 9.35752 41031 ft 512 kts 83°
2026-05-07 09:23 52.25187 9.47248 41016 ft 512 kts 82°
2026-05-07 09:24 52.26250 9.58745 41029 ft 512 kts 82°
2026-05-07 09:24 52.27280 9.70264 41023 ft 512 kts 83°
2026-05-07 09:25 52.28288 9.81783 41020 ft 512 kts 83°
2026-05-07 09:25 52.29284 9.93311 41031 ft 512 kts 83°
2026-05-07 09:26 52.30264 10.04856 41019 ft 513 kts 83°
2026-05-07 09:26 52.31227 10.16413 41025 ft 513 kts 84°
2026-05-07 09:27 52.32187 10.27973 41028 ft 513 kts 84°
2026-05-07 09:28 52.33612 10.45325 41023 ft 513 kts 84°
2026-05-07 09:28 52.34550 10.56926 41030 ft 514 kts 84°
2026-05-07 09:29 52.35470 10.68444 41017 ft 514 kts 84°
2026-05-07 09:29 52.36208 10.80047 41029 ft 513 kts 88°
2026-05-07 09:30 52.36569 10.91712 41018 ft 512 kts 90°
2026-05-07 09:30 52.36807 11.03375 41008 ft 512 kts 90°
2026-05-07 09:31 52.37015 11.15031 41013 ft 513 kts 90°
2026-05-07 09:31 52.37210 11.26709 41001 ft 513 kts 90°
2026-05-07 09:32 52.37394 11.38376 40999 ft 513 kts 90°
2026-05-07 09:32 52.37566 11.49980 40999 ft 513 kts 90°
2026-05-07 09:33 52.37728 11.61667 40988 ft 513 kts 90°
2026-05-07 09:33 52.37879 11.73336 41000 ft 513 kts 91°
2026-05-07 09:34 52.38017 11.85015 40993 ft 513 kts 91°
2026-05-07 09:34 52.38144 11.96689 40984 ft 513 kts 91°
2026-05-07 09:35 52.38259 12.08354 40995 ft 513 kts 91°
2026-05-07 09:35 52.38363 12.20038 40983 ft 513 kts 91°
2026-05-07 09:36 52.38456 12.31739 40978 ft 513 kts 91°
2026-05-07 09:36 52.38541 12.43415 40986 ft 513 kts 91°
2026-05-07 09:37 52.38613 12.55084 40971 ft 512 kts 91°
2026-05-07 09:37 52.38659 12.64770 40983 ft 512 kts 92°
2026-05-07 09:38 52.38713 12.78348 40984 ft 512 kts 92°
2026-05-07 09:38 52.38748 12.90022 40980 ft 512 kts 92°
2026-05-07 09:39 52.38773 13.01700 41002 ft 513 kts 92°
2026-05-07 09:39 52.38784 13.13375 40995 ft 513 kts 92°
2026-05-07 09:40 52.38781 13.25055 40987 ft 512 kts 92°
2026-05-07 09:40 52.38772 13.36732 41001 ft 512 kts 92°
2026-05-07 09:41 52.38753 13.48396 40989 ft 513 kts 92°
2026-05-07 09:41 52.38722 13.59992 40995 ft 512 kts 92°
2026-05-07 09:42 52.38677 13.71749 40999 ft 513 kts 92°
2026-05-07 09:42 52.38619 13.83438 40988 ft 513 kts 93°
2026-05-07 09:43 52.38547 13.95075 41000 ft 513 kts 93°
2026-05-07 09:43 52.38467 14.06778 40994 ft 514 kts 93°
2026-05-07 09:44 52.38394 14.16515 40988 ft 514 kts 93°
2026-05-07 09:44 52.38275 14.30185 41001 ft 514 kts 93°
2026-05-07 09:45 52.38181 14.39917 40992 ft 514 kts 93°
2026-05-07 09:45 52.38012 14.51607 40990 ft 513 kts 96°
2026-05-07 09:46 52.37263 14.63221 41000 ft 512 kts 100°
2026-05-07 09:46 52.36213 14.74644 40986 ft 510 kts 102°
2026-05-07 09:47 52.35010 14.86072 41000 ft 510 kts 103°
2026-05-07 09:47 52.33756 14.97503 40993 ft 510 kts 103°
2026-05-07 09:48 52.32493 15.08915 40991 ft 510 kts 103°
2026-05-07 09:48 52.31222 15.20316 41001 ft 510 kts 103°
2026-05-07 09:49 52.29939 15.31711 40989 ft 509 kts 103°
2026-05-07 09:49 52.28646 15.43093 40996 ft 509 kts 103°
2026-05-07 09:50 52.27373 15.54480 40989 ft 511 kts 101°
2026-05-07 09:50 52.26785 15.65986 40992 ft 513 kts 96°
2026-05-07 09:51 52.26472 15.77637 40991 ft 513 kts 95°
2026-05-07 09:51 52.26154 15.89292 40998 ft 513 kts 95°
2026-05-07 09:52 52.25802 16.00944 40986 ft 514 kts 96°
2026-05-07 09:52 52.25428 16.12588 40992 ft 514 kts 96°
2026-05-07 09:53 52.25041 16.24237 40989 ft 514 kts 96°
2026-05-07 09:53 52.24642 16.35898 40978 ft 514 kts 96°
2026-05-07 09:54 52.24232 16.47554 40986 ft 514 kts 96°
2026-05-07 09:54 52.23810 16.59207 40976 ft 515 kts 96°
2026-05-07 09:55 52.23377 16.70859 40970 ft 515 kts 96°
2026-05-07 09:55 52.22935 16.82456 40980 ft 515 kts 96°
2026-05-07 09:56 52.22479 16.94113 40968 ft 515 kts 96°
2026-05-07 09:56 52.22011 17.05761 40973 ft 514 kts 96°
2026-05-07 09:57 52.21532 17.17415 40979 ft 515 kts 97°
2026-05-07 09:57 52.21042 17.29057 40968 ft 514 kts 97°
2026-05-07 09:58 52.20540 17.40688 40978 ft 515 kts 96°
2026-05-07 09:58 52.20900 17.52417 40988 ft 520 kts 85°
2026-05-07 09:59 52.21914 17.64119 40965 ft 521 kts 83°
2026-05-07 09:59 52.23020 17.75801 40974 ft 521 kts 84°
2026-05-07 10:00 52.24098 17.87498 40967 ft 520 kts 84°
2026-05-07 10:00 52.25152 17.99131 40918 ft 519 kts 84°
2026-05-07 10:00 52.25679 18.05011 40291 ft 527 kts 84°
2026-05-07 10:01 52.26207 18.10938 39572 ft 528 kts 84°
2026-05-07 10:01 52.26734 18.16869 38825 ft 527 kts 84°
2026-05-07 10:01 52.27256 18.22777 38077 ft 525 kts 84°
2026-05-07 10:01 52.27773 18.28668 37327 ft 523 kts 84°
2026-05-07 10:02 52.28286 18.34544 36576 ft 520 kts 85°
2026-05-07 10:02 52.28794 18.40398 35825 ft 518 kts 85°
2026-05-07 10:02 52.29294 18.46207 35076 ft 516 kts 86°
2026-05-07 10:02 52.29790 18.52011 34326 ft 516 kts 86°
2026-05-07 10:03 52.30278 18.57769 33587 ft 519 kts 87°
2026-05-07 10:03 52.30770 18.63628 32836 ft 519 kts 87°
2026-05-07 10:03 52.31259 18.69461 32083 ft 515 kts 87°
2026-05-07 10:03 52.31741 18.75218 31333 ft 509 kts 87°
2026-05-07 10:04 52.32216 18.80937 30580 ft 504 kts 87°
2026-05-07 10:04 52.32683 18.86593 29828 ft 499 kts 87°
2026-05-07 10:04 52.33114 18.92207 29075 ft 493 kts 88°
2026-05-07 10:04 52.33472 18.97756 28321 ft 488 kts 89°
2026-05-07 10:05 52.33790 19.03254 27567 ft 483 kts 89°
2026-05-07 10:05 52.34084 19.08708 26815 ft 478 kts 89°
2026-05-07 10:05 52.34365 19.14103 26104 ft 474 kts 89°
2026-05-07 10:05 52.34636 19.19371 25450 ft 468 kts 89°
2026-05-07 10:06 52.34907 19.24712 24826 ft 461 kts 89°
2026-05-07 10:06 52.35167 19.29899 24265 ft 454 kts 89°
2026-05-07 10:06 52.35418 19.34946 23716 ft 447 kts 89°
2026-05-07 10:06 52.35668 19.39966 23159 ft 440 kts 89°
2026-05-07 10:07 52.35913 19.44930 22604 ft 434 kts 89°
2026-05-07 10:07 52.36151 19.49824 22048 ft 429 kts 89°
2026-05-07 10:07 52.36383 19.54662 21493 ft 424 kts 89°
2026-05-07 10:07 52.36610 19.59444 20948 ft 419 kts 89°
2026-05-07 10:08 52.36832 19.64164 20418 ft 414 kts 89°
2026-05-07 10:08 52.37051 19.68857 19896 ft 410 kts 89°
2026-05-07 10:08 52.37283 19.73480 19334 ft 407 kts 86°
2026-05-07 10:08 52.37919 19.78029 18656 ft 411 kts 76°
2026-05-07 10:09 52.38825 19.82441 18273 ft 404 kts 72°
2026-05-07 10:09 52.39798 19.86690 18032 ft 393 kts 71°
2026-05-07 10:09 52.40707 19.90846 17872 ft 379 kts 77°
2026-05-07 10:09 52.41033 19.95057 17774 ft 369 kts 93°
2026-05-07 10:10 52.40704 19.99170 17555 ft 358 kts 108°
2026-05-07 10:10 52.39772 20.02888 17138 ft 351 kts 124°
2026-05-07 10:10 52.38335 20.06136 16807 ft 359 kts 133°
2026-05-07 10:10 52.36864 20.09594 16439 ft 377 kts 127°
2026-05-07 10:11 52.35469 20.13261 16064 ft 381 kts 126°
2026-05-07 10:11 52.34087 20.16939 15686 ft 378 kts 126°
2026-05-07 10:11 52.32720 20.20578 15306 ft 373 kts 126°
2026-05-07 10:11 52.31369 20.24170 14929 ft 370 kts 126°
2026-05-07 10:12 52.30026 20.27747 14552 ft 368 kts 126°
2026-05-07 10:12 52.28694 20.31300 14175 ft 366 kts 126°
2026-05-07 10:12 52.27363 20.34841 13799 ft 364 kts 126°
2026-05-07 10:12 52.26057 20.38302 13425 ft 362 kts 126°
2026-05-07 10:13 52.24736 20.41789 13051 ft 360 kts 126°
2026-05-07 10:13 52.23423 20.45252 12673 ft 356 kts 126°
2026-05-07 10:13 52.22133 20.48646 12291 ft 349 kts 126°
2026-05-07 10:13 52.20860 20.51990 11921 ft 344 kts 126°
2026-05-07 10:14 52.19608 20.55270 11542 ft 339 kts 126°
2026-05-07 10:14 52.18371 20.58510 11190 ft 334 kts 126°
2026-05-07 10:14 52.17157 20.61683 10935 ft 326 kts 126°
2026-05-07 10:14 52.15973 20.64779 10684 ft 319 kts 126°
2026-05-07 10:15 52.14811 20.67813 10432 ft 312 kts 126°
2026-05-07 10:15 52.13517 20.70571 10177 ft 303 kts 135°
2026-05-07 10:15 52.12139 20.73106 9993 ft 295 kts 136°
2026-05-07 10:15 52.10795 20.75562 9867 ft 286 kts 136°
2026-05-07 10:16 52.09485 20.77957 9632 ft 282 kts 136°
2026-05-07 10:16 52.08194 20.80327 9361 ft 279 kts 136°
2026-05-07 10:16 52.06909 20.82688 9094 ft 277 kts 136°
2026-05-07 10:16 52.05632 20.85021 8807 ft 274 kts 138°
2026-05-07 10:17 52.04223 20.87014 8500 ft 271 kts 145°
2026-05-07 10:17 52.02755 20.88931 8208 ft 271 kts 146°
2026-05-07 10:17 52.01268 20.90874 7889 ft 271 kts 146°
2026-05-07 10:17 51.99803 20.92787 7630 ft 269 kts 146°
2026-05-07 10:18 51.98354 20.94677 7403 ft 266 kts 146°
2026-05-07 10:18 51.96943 20.96514 7175 ft 263 kts 146°
2026-05-07 10:18 51.95517 20.98371 6927 ft 261 kts 145°
2026-05-07 10:18 51.94315 21.00664 6571 ft 271 kts 123°
2026-05-07 10:19 51.93823 21.03576 6135 ft 276 kts 96°
2026-05-07 10:19 51.94152 21.06660 5699 ft 277 kts 69°
2026-05-07 10:19 51.95127 21.09329 5360 ft 272 kts 56°
2026-05-07 10:19 51.96178 21.11832 4977 ft 265 kts 54°
2026-05-07 10:20 51.97513 21.13807 4529 ft 258 kts 27°
2026-05-07 10:20 51.99198 21.14471 4142 ft 245 kts 354°
2026-05-07 10:20 52.00734 21.13636 3801 ft 227 kts 321°
2026-05-07 10:20 52.01708 21.11779 3602 ft 206 kts 300°
2026-05-07 10:21 52.02490 21.09942 3361 ft 192 kts 301°
2026-05-07 10:21 52.03068 21.08794 3181 ft 195 kts 309°
2026-05-07 10:21 52.04587 21.07222 2821 ft 196 kts 325°
2026-05-07 10:21 52.05773 21.06136 2535 ft 195 kts 326°
2026-05-07 10:22 52.06562 21.05436 2357 ft 195 kts 326°
2026-05-07 10:22 52.08108 21.04080 2021 ft 177 kts 329°
2026-05-07 10:22 52.08807 21.03479 1865 ft 166 kts 330°
2026-05-07 10:22 52.10113 21.02360 1579 ft 154 kts 330°
2026-05-07 10:23 52.10734 21.01820 1444 ft 152 kts 330°
2026-05-07 10:23 52.11654 21.01011 1242 ft 149 kts 330°
2026-05-07 10:23 52.12563 21.00210 1048 ft 147 kts 330°
2026-05-07 10:23 52.13464 20.99425 850 ft 146 kts 330°
2026-05-07 10:24 52.14358 20.98647 657 ft 145 kts 330°
2026-05-07 10:24 52.15248 20.97867 454 ft 145 kts 330°
2026-05-07 10:24 52.16089 20.97134 375 ft 116 kts 331°
2026-05-07 10:24 52.16612 20.96679 374 ft 54 kts 333°
2026-05-07 10:25 52.16788 20.96542 374 ft 14 kts 342°
2026-05-07 10:25 52.16886 20.96514 374 ft 15 kts 353°
2026-05-07 10:25 52.16981 20.96513 374 ft 14 kts
2026-05-07 10:25 52.17047 20.96519 374 ft 8 kts 11°
2026-05-07 10:26 52.17086 20.96561 374 ft 3 kts 56°
2026-05-07 10:26 52.17104 20.96615 374 ft 8 kts 64°
2026-05-07 10:26 52.17129 20.96695 374 ft 8 kts 60°
2026-05-07 10:26 52.17147 20.96746 374 ft 3 kts 61°
2026-05-07 10:27 52.17167 20.96797 374 ft 8 kts 42°
2026-05-07 10:27 52.17213 20.96793 374 ft 8 kts 331°
2026-05-07 10:27 52.17261 20.96751 374 ft 7 kts 332°
2026-05-07 10:27 52.17306 20.96711 374 ft 9 kts 332°
2026-05-07 10:28 52.17353 20.96671 374 ft 8 kts 332°
2026-05-07 10:28 52.17398 20.96632 374 ft 4 kts 332°
2026-05-07 10:28 52.17428 20.96606 374 ft 5 kts 332°
2026-05-07 10:28 52.17462 20.96577 374 ft 7 kts 333°
2026-05-07 10:29 52.17506 20.96580 374 ft 6 kts 34°
2026-05-07 10:29 52.17520 20.96611 374 ft 5 kts 58°
2026-05-07 10:29 52.17516 20.96670 374 ft 6 kts 127°
2026-05-07 10:30 52.17478 20.96739 374 ft 3 kts 136°
2026-05-07 10:30 52.17468 20.96754 374 ft 0 kts 136°
2026-05-07 10:30 52.17468 20.96755 374 ft 0 kts 136°